Location: Launay
(47.2429°N, 1.5727°E)
Time: 16:06:33
(UTC+00:00)

Cosmos 2058 Rocket - Pass Details

Date: 19 May 2025
Orbit: 604 x 634 km, 82.5° (Epoch: 12 June)

Event Time Altitude Azimuth Distance (km) Brightness Sun altitude
Exits shadow 20:36:32 - 184° (S) 2,828 6.1 -9.9°
Reaches altitude 10° 20:38:33 10° 184° (S) 2,011 5.3 -10.2°
Maximum altitude 20:43:01 80° 97° (E) 646 3.1 -10.7°
Drops below altitude 10° 20:47:29 10° 11° (NNE) 2,015 6.2 -11.2°
Sets 20:49:44 0° 11° (N) 2,923 7.1 -11.5°
